Powrót do katalogu

STARLINK-31311

AktywnyŁącznośćVLEO
NORAD 58948·PAYLOAD·🇺🇸 United States

Wystrzelony Feb 10, 2024 z Vandenberg Space Force Base

Loading…

Następne Przeloty (najbliższe 24 godziny)

TLE

ŚwieżeSource: CelesTrak SupGP

Epoka: Sep 15, 2026, 02:14 UTC

1 58948C 24027T   26258.09354167  .00006042  00000+0  17852-3 0  2582
2 58948  53.1580 146.6363 0001354  85.6554 232.0454 15.34384986    15

Śledź STARLINK-31311 w czasie rzeczywistym z AllMySat

Download on the App Store